Charleston, WV

7:42 PM EDT on May 26, 2018 (GMT -0400)
Yeager Airport

Weather History for KCRW - November, 2013

Change the Weather History Date:

Sunday, November 17, 2013

  Actual Average Record
Temperature  
Mean Temperature 61 °F 46 °F  
Max Temperature 68 °F 57 °F 86 °F (1931)
Min Temperature 54 °F 37 °F 16 °F (1959)
Degree Days  
Heating Degree Days 4 19  
Month to date heating degree days 289 271  
Since 1 July heating degree days 595 611  
Cooling Degree Days 0 0  
Month to date cooling degree days 0 0  
Year to date cooling degree days 1121 1094  
Growing Degree Days 10 (Base 50)    
Moisture  
Dew Point 54 °F    
Average Humidity 80    
Maximum Humidity 97    
Minimum Humidity 63    
Precipitation  
Precipitation 0.21 in 0.14 in 1.57 in (1903)
Month to date precipitation 1.31 2.08  
Year to date precipitation 39.11 39.11  
Snow  
Snow 0.00 in 0.00 in 1.00 in (1920)
Month to date snowfall 1.2 0.4  
Since 1 September snowfall 1.2 0.5  
Snow Depth 0.00 in    
Sea Level Pressure  
Sea Level Pressure 29.87 in    
Wind  
Wind Speed 7 mph (SSE)    
Max Wind Speed 28 mph    
Max Gust Speed 46 mph    
Visibility 9 miles    
Events Rain    
T = Trace of Precipitation, MM = Missing Value Source: NWS Daily Summary

Daily Weather History Graph

Daily Weather History Graph

Search for Another Location

Airport or City:

Astronomy

Nov. 17, 2013 Rise Set
Actual Time 7:10 AM EST 5:12 PM EST
Civil Twilight 6:41 AM EST 5:40 PM EST
Nautical Twilight 6:09 AM EST 6:12 PM EST
Astronomical Twilight 5:38 AM EST 6:44 PM EST
Moon 5:28 PM EST (11/17) 7:03 AM EST (11/17)
Length of Visible Light 10h 58m
Length of Day
10h 01m
Full, 100% of the Moon is Illuminated
Nov 17
Full
Nov 25
Last Quarter
Dec 2
New
Dec 9
First Quarter
Dec 17
Full

Hourly Weather History & Observations

Time (EST) Temp. Dew Point Humidity Pressure Visibility Wind Dir Wind Speed Gust Speed Precip Events Conditions
12:54 AM 57.9 °F 48.9 °F 72% 30.01 in 10.0 mi Calm Calm - N/A   Mostly Cloudy
1:54 AM 57.9 °F 48.9 °F 72% 30.00 in 10.0 mi SSE 4.6 mph - N/A   Mostly Cloudy
2:54 AM 57.9 °F 48.9 °F 72% 30.01 in 10.0 mi SSE 3.5 mph - N/A   Mostly Cloudy
3:54 AM 55.0 °F 48.9 °F 80% 30.02 in 10.0 mi Calm Calm - N/A   Mostly Cloudy
4:54 AM 55.9 °F 48.9 °F 77% 30.01 in 10.0 mi SSE 11.5 mph - N/A   Overcast
5:54 AM 60.1 °F 50.0 °F 69% 29.99 in 10.0 mi SSE 10.4 mph - N/A   Overcast
6:54 AM 60.1 °F 50.0 °F 69% 29.98 in 10.0 mi SSE 4.6 mph - N/A   Overcast
7:54 AM 61.0 °F 50.0 °F 67% 29.98 in 10.0 mi SSE 3.5 mph - N/A   Overcast
8:54 AM 63.0 °F 51.1 °F 65% 29.96 in 10.0 mi SSE 4.6 mph - 0.00 in   Overcast
9:54 AM 64.0 °F 51.1 °F 63% 29.98 in 10.0 mi South 9.2 mph - N/A   Overcast
10:54 AM 64.9 °F 52.0 °F 63% 29.97 in 10.0 mi South 8.1 mph - 0.00 in Rain Light Rain
11:54 AM 63.0 °F 55.0 °F 75% 29.93 in 10.0 mi Calm Calm - 0.02 in Rain Light Rain
12:54 PM 63.0 °F 57.0 °F 81% 29.89 in 10.0 mi Calm Calm - 0.00 in Rain Light Rain
1:54 PM 66.0 °F 55.0 °F 68% 29.83 in 10.0 mi Calm Calm - 0.00 in Rain Light Rain
2:43 PM 64.4 °F 55.4 °F 73% 29.83 in 6.0 mi Calm Calm - 0.02 in Rain Light Rain
2:54 PM 63.0 °F 57.0 °F 81% 29.81 in 6.0 mi East 3.5 mph - 0.03 in Rain Light Rain
3:54 PM 61.0 °F 59.0 °F 93% 29.76 in 7.0 mi SE 5.8 mph - 0.05 in Rain Light Rain
4:54 PM 63.0 °F 57.9 °F 84% 29.73 in 9.0 mi SSE 5.8 mph - 0.00 in Rain Light Rain
5:54 PM 61.0 °F 59.0 °F 93% 29.73 in 7.0 mi SSE 6.9 mph - 0.05 in Rain Light Rain
6:54 PM 64.9 °F 59.0 °F 81% 29.70 in 10.0 mi South 12.7 mph - 0.01 in   Mostly Cloudy
7:54 PM 66.0 °F 59.0 °F 78% 29.67 in 10.0 mi South 18.4 mph 25.3 mph N/A   Mostly Cloudy
8:54 PM 66.9 °F 60.1 °F 79% 29.68 in 10.0 mi South 12.7 mph 24.2 mph 0.00 in   Overcast
9:54 PM 66.0 °F 61.0 °F 84% 29.68 in 8.0 mi SSW 24.2 mph 33.4 mph 0.02 in Rain Light Rain
10:23 PM 60.8 °F 53.6 °F 77% 29.78 in 9.0 mi NW 27.6 mph 46.0 mph 0.02 in Rain Light Rain
10:54 PM 57.9 °F 48.0 °F 70% 29.78 in 10.0 mi West 8.1 mph - 0.02 in Rain Light Rain
11:54 PM 57.0 °F 48.0 °F 72% 29.81 in 10.0 mi SSW 6.9 mph - 0.01 in   Overcast